Weather History for Havre, MT

Change the Weather History Date:

Wednesday, November 28, 2012

  Actual Average Record
Temperature  
Mean Temperature 26 °F 24 °F  
Max Temperature 35 °F 35 °F 62 °F (1901)
Min Temperature 17 °F 14 °F -26 °F (1985)
Degree Days  
Heating Degree Days 39 41  
Month to date heating degree days 982 962  
Since 1 July heating degree days 1909 1961  
Cooling Degree Days 0 0  
Month to date cooling degree days 0 0  
Year to date cooling degree days 507 387  
Moisture  
Dew Point 20 °F    
Average Humidity 81    
Maximum Humidity 92    
Minimum Humidity 70    
Precipitation  
Precipitation 0.00 in 0.01 in 0.39 in (1927)
Month to date precipitation 0.90 0.40  
Year to date precipitation 12.39 10.77  
Snow  
Snow 0.00 in 0.20 in 3.50 in (1998)
Month to date snowfall 16.5 4.8  
Since 1 July snowfall 18.0 7.1  
Since 1 September snowfall 18.0 7.1  
Snow Depth 1.00 in    
Sea Level Pressure  
Sea Level Pressure 30.03 in    
Wind  
Wind Speed 7 mph (ENE)    
Max Wind Speed 20 mph    
Max Gust Speed 24 mph    
Visibility 10 miles    
Events      
T = Trace of Precipitation, MM = Missing Value Source: NWS Daily Summary

Daily Weather History Graph

Daily Weather History Graph

Search for Another Location

Airport:

Trip Planner

Search our weather history database for the weather conditions in past years. The results will help you decide how hot, cold, wet, or windy it might be!

Date:

Astronomy

Nov. 28, 2012 Rise Set
Actual Time 7:46 AM MST 4:27 PM MST
Civil Twilight 7:10 AM MST 5:03 PM MST
Nautical Twilight 6:31 AM MST 5:42 PM MST
Astronomical Twilight 5:54 AM MST 6:20 PM MST
Moon 4:44 PM MST (11/28) 7:47 AM MST (11/28)
Length of Visible Light 9h 52m
Length of Day
8h 40m
Full, 100% of the Moon is Illuminated
Nov 28
Full
Dec 6
Last Quarter
Dec 13
New
Dec 19
First Quarter
Dec 28
Full

Hourly Weather History & Observations

Time (MST) Temp. Windchill Dew Point Humidity Pressure Visibility Wind Dir Wind Speed Gust Speed Precip Events Conditions
12:53 AM 18.0 °F - 16.0 °F 92% 30.10 in 10.0 mi Calm Calm - N/A   Clear
1:53 AM 17.1 °F 11.7 °F 15.1 °F 92% 30.09 in 10.0 mi SE 3.5 mph - N/A   Clear
2:53 AM 19.0 °F - 16.0 °F 88% 30.08 in 10.0 mi Calm Calm - N/A   Clear
3:53 AM 18.0 °F - 15.1 °F 88% 30.09 in 10.0 mi Calm Calm - N/A   Clear
5:53 AM 19.0 °F - 16.0 °F 88% 30.09 in 10.0 mi Calm Calm - N/A   Clear
6:53 AM 17.1 °F - 14.0 °F 88% 30.10 in 10.0 mi Calm Calm - N/A   Clear
7:53 AM 21.0 °F - 18.0 °F 88% 30.10 in 10.0 mi Calm Calm - N/A   Clear
8:53 AM 21.0 °F 16.2 °F 18.0 °F 88% 30.11 in 10.0 mi NNE 3.5 mph - N/A   Scattered Clouds
9:53 AM 25.0 °F 20.7 °F 21.0 °F 85% 30.10 in 10.0 mi ENE 3.5 mph - N/A   Clear
10:53 AM 28.0 °F 24.2 °F 24.1 °F 85% 30.10 in 10.0 mi NE 3.5 mph - N/A   Clear
11:53 AM 32.0 °F 27.5 °F 25.0 °F 75% 30.08 in 10.0 mi ENE 4.6 mph - N/A   Clear
12:53 PM 35.1 °F 29.3 °F 26.1 °F 70% 30.07 in 10.0 mi NNE 6.9 mph - N/A   Clear
1:53 PM 35.1 °F 31.0 °F 26.1 °F 70% 30.04 in 10.0 mi East 4.6 mph - N/A   Clear
2:53 PM 34.0 °F 28.8 °F 26.1 °F 73% 30.01 in 10.0 mi NE 5.8 mph - N/A   Clear
3:53 PM 32.0 °F 26.4 °F 26.1 °F 79% 30.01 in 10.0 mi NNE 5.8 mph - N/A   Clear
4:53 PM 28.9 °F 21.1 °F 24.1 °F 82% 30.00 in 10.0 mi ENE 8.1 mph - N/A   Clear
5:53 PM 28.0 °F 18.1 °F 24.1 °F 85% 29.99 in 10.0 mi ENE 11.5 mph - N/A   Clear
6:53 PM 27.0 °F 15.2 °F 23.0 °F 85% 29.99 in 10.0 mi ENE 15.0 mph - N/A   Clear
7:53 PM 25.0 °F 11.3 °F 21.9 °F 88% 29.96 in 10.0 mi ENE 18.4 mph - N/A   Clear
8:53 PM 24.1 °F 10.6 °F 19.9 °F 84% 29.96 in 10.0 mi ENE 17.3 mph - N/A   Clear
9:33 PM 23.0 °F 9.6 °F 19.4 °F 86% 29.84 in 10.0 mi ENE 16.1 mph - N/A   Partly Cloudy
9:50 PM 23.0 °F 9.6 °F 19.4 °F 86% 29.85 in 10.0 mi ENE 16.1 mph - N/A   Mostly Cloudy
9:53 PM 23.0 °F 9.6 °F 19.9 °F 88% 29.96 in 10.0 mi ENE 16.1 mph - N/A   Mostly Cloudy
10:53 PM 21.9 °F 7.3 °F 19.0 °F 89% 29.95 in 10.0 mi ENE 18.4 mph - N/A   Overcast
11:53 PM 21.9 °F 8.7 °F 19.0 °F 89% 29.94 in 10.0 mi ENE 15.0 mph - N/A   Overcast